User: anonymous
Location: NJAA Observatory
(40.6819°N, 74.8979°W)
Time: 03:19:45
(UTC-04:00)
Language:

Iridium 4 - Orbit

View from above orbital plane
View from above orbital plane
View from above satellite
View from above satellite

Ground track
Ground track

The orbit data is extracted from the following two-line orbital elements,

1 24796U 97020E   14110.43161971  .00000738  00000-0  25428-3 0  8244
2 24796 086.3948 080.7470 0002113 102.0118 009.5393 14.34609796887858
Epoch (UTC): 20 April 2014 10:21:31
Eccentricity: 0.0002113
inclination: 86.3948°
perigee height: 775 km
apogee height: 778 km
right ascension of ascending node: 80.7470°
argument of perigee: 102.0118°
revolutions per day: 14.34609796
mean anomaly at epoch: 9.5393°
orbit number at epoch: 88785

The dashed part of the orbit path shows where the satellite is in the earth's shadow,  

DLR